• In Portugal
  • List of Countries
  • For 7 days
  • Water Temperature
  • Satellite Maps
  • Weather Map
  • Weather Widgets
  • user-avatar
    Login

    Hourly Weather Kahramanmaras

    Today, 23 October, Monday

    Time Temperature Precipitation Wind Pressure Humidity
    00:00 +12°C° 0 mm 1 mps 659 mmHg 73%
    01:00 +11°C° 0 mm 1 mps 659 mmHg 73%
    02:00 +11°C° 0 mm 1 mps 659 mmHg 73%
    03:00 +11°C° 0 mm 1 mps 659 mmHg 71%
    04:00 +11°C° 0 mm 1 mps 659 mmHg 70%
    05:00 +10°C° 0 mm 1 mps 659 mmHg 69%
    06:00 +12°C° 0 mm 1 mps 659 mmHg 60%
    07:00 +14°C° 0 mm 1 mps 660 mmHg 51%
    08:00 +16°C° 0 mm 1 mps 661 mmHg 42%
    09:00 +19°C° 0 mm 1 mps 661 mmHg 37%
    10:00 +19°C° 0 mm 2 mps 661 mmHg 32%
    11:00 +21°C° 0 mm 2 mps 662 mmHg 27%
    12:00 +21°C° 0 mm 2 mps 661 mmHg 27%
    13:00 +21°C° 0 mm 3 mps 661 mmHg 26%
    14:00 +21°C° 0 mm 3 mps 661 mmHg 25%
    15:00 +20°C° 0 mm 2 mps 660 mmHg 30%
    16:00 +18°C° 0 mm 2 mps 660 mmHg 34%
    17:00 +16°C° 0 mm 1 mps 659 mmHg 39%
    18:00 +15°C° 0 mm 1 mps 659 mmHg 42%
    19:00 +15°C° 0 mm 1 mps 659 mmHg 44%
    20:00 +14°C° 0 mm 1 mps 659 mmHg 47%
    21:00 +14°C° 0 mm 1 mps 659 mmHg 46%
    22:00 +13°C° 0 mm 1 mps 659 mmHg 46%
    23:00 +13°C° 0 mm 1 mps 659 mmHg 46%

    Tomorrow, 24 October, Tuesday

    Time Temperature Precipitation Wind Pressure Humidity
    00:00 +13°C° 0 mm 1 mps 659 mmHg 46%
    01:00 +12°C° 0 mm 2 mps 659 mmHg 46%
    02:00 +12°C° 0 mm 2 mps 659 mmHg 45%
    03:00 +12°C° 0 mm 2 mps 659 mmHg 47%
    04:00 +12°C° 0 mm 2 mps 659 mmHg 48%
    05:00 +12°C° 0 mm 2 mps 658 mmHg 49%
    06:00 +13°C° 0 mm 2 mps 659 mmHg 45%
    07:00 +15°C° 0 mm 2 mps 660 mmHg 41%
    08:00 +17°C° 0 mm 2 mps 661 mmHg 38%
    09:00 +18°C° 0 mm 2 mps 661 mmHg 34%
    10:00 +19°C° 0 mm 2 mps 661 mmHg 31%
    11:00 +21°C° 0 mm 3 mps 661 mmHg 27%
    12:00 +21°C° 0 mm 3 mps 661 mmHg 26%
    13:00 +22°C° 0 mm 3 mps 661 mmHg 24%
    14:00 +22°C° 0 mm 3 mps 661 mmHg 23%
    15:00 +20°C° 0 mm 2 mps 660 mmHg 25%
    16:00 +18°C° 0 mm 2 mps 660 mmHg 28%
    17:00 +18°C° 0 mm 1 mps 659 mmHg 31%
    18:00 +16°C° 0 mm 1 mps 660 mmHg 33%
    19:00 +15°C° 0 mm 1 mps 660 mmHg 35%
    20:00 +14°C° 0 mm 1 mps 660 mmHg 37%
    21:00 +14°C° 0 mm 1 mps 660 mmHg 39%
    22:00 +13°C° 0 mm 1 mps 660 mmHg 41%
    23:00 +13°C° 0 mm 1 mps 660 mmHg 43%

    Day after tomorrow, 25 October, Wednesday

    Time Temperature Precipitation Wind Pressure Humidity
    00:00 +12°C° 0 mm 1 mps 660 mmHg 44%
    01:00 +12°C° 0 mm 1 mps 660 mmHg 45%
    02:00 +12°C° 0 mm 1 mps 660 mmHg 46%
    03:00 +12°C° 0 mm 1 mps 660 mmHg 46%
    04:00 +11°C° 0 mm 1 mps 660 mmHg 46%
    05:00 +11°C° 0 mm 1 mps 660 mmHg 46%
    06:00 +13°C° 0 mm 1 mps 661 mmHg 41%
    07:00 +15°C° 0 mm 1 mps 661 mmHg 36%
    08:00 +18°C° 0 mm 1 mps 662 mmHg 31%
    09:00 +18°C° 0 mm 2 mps 662 mmHg 29%
    10:00 +19°C° 0 mm 2 mps 663 mmHg 26%
    11:00 +21°C° 0 mm 2 mps 663 mmHg 23%
    12:00 +21°C° 0 mm 3 mps 663 mmHg 24%
    13:00 +21°C° 0 mm 3 mps 663 mmHg 25%
    14:00 +21°C° 0 mm 3 mps 662 mmHg 26%
    15:00 +19°C° 0 mm 3 mps 662 mmHg 33%
    16:00 +18°C° 0 mm 2 mps 662 mmHg 40%
    17:00 +16°C° 0 mm 2 mps 661 mmHg 47%
    18:00 +15°C° 0 mm 2 mps 661 mmHg 54%
    19:00 +14°C° 0 mm 2 mps 662 mmHg 60%
    20:00 +13°C° 0 mm 1 mps 662 mmHg 67%
    21:00 +13°C° 0 mm 1 mps 662 mmHg 70%
    22:00 +12°C° 0 mm 1 mps 662 mmHg 73%
    23:00 +12°C° 0 mm 1 mps 662 mmHg 76%

    26 October, Thursday

    Time Temperature Precipitation Wind Pressure Humidity
    00:00 +12°C° 0 mm 1 mps 662 mmHg 77%
    01:00 +12°C° 0 mm 1 mps 661 mmHg 78%
    02:00 +12°C° 0 mm 2 mps 661 mmHg 79%
    03:00 +11°C° 0 mm 1 mps 661 mmHg 79%
    04:00 +11°C° 0 mm 1 mps 661 mmHg 79%
    05:00 +11°C° 0 mm 1 mps 661 mmHg 80%
    06:00 +12°C° 0 mm 1 mps 662 mmHg 73%
    07:00 +13°C° 0 mm 1 mps 662 mmHg 66%
    08:00 +15°C° 0 mm 1 mps 663 mmHg 59%
    09:00 +16°C° 0 mm 2 mps 663 mmHg 52%
    10:00 +17°C° 0 mm 3 mps 664 mmHg 45%
    11:00 +19°C° 0 mm 3 mps 664 mmHg 38%
    12:00 +19°C° 0 mm 3 mps 664 mmHg 37%
    13:00 +19°C° 0 mm 3 mps 663 mmHg 36%
    14:00 +19°C° 0 mm 3 mps 663 mmHg 35%
    15:00 +17°C° 0 mm 3 mps 663 mmHg 41%
    16:00 +16°C° 0 mm 2 mps 662 mmHg 46%
    17:00 +14°C° 0 mm 2 mps 662 mmHg 52%
    18:00 +14°C° 0 mm 2 mps 662 mmHg 57%
    19:00 +13°C° 0 mm 2 mps 662 mmHg 61%
    20:00 +12°C° 0 mm 1 mps 663 mmHg 66%
    21:00 +12°C° 0 mm 1 mps 662 mmHg 66%
    22:00 +11°C° 0 mm 1 mps 662 mmHg 67%
    23:00 +11°C° 0 mm 1 mps 662 mmHg 68%

    27 October, Friday

    Time Temperature Precipitation Wind Pressure Humidity
    00:00 +11°C° 0 mm 1 mps 662 mmHg 67%
    01:00 +11°C° 0 mm 1 mps 662 mmHg 67%
    02:00 +10°C° 0 mm 1 mps 662 mmHg 66%
    03:00 +10°C° 0 mm 1 mps 661 mmHg 66%
    04:00 +9°C° 0 mm 2 mps 661 mmHg 66%
    05:00 +9°C° 0 mm 2 mps 661 mmHg 65%
    06:00 +10°C° 0 mm 2 mps 662 mmHg 58%
    07:00 +13°C° 0 mm 1 mps 662 mmHg 52%
    08:00 +15°C° 0 mm 1 mps 663 mmHg 45%
    09:00 +16°C° 0 mm 1 mps 663 mmHg 39%
    10:00 +19°C° 0 mm 1 mps 663 mmHg 34%
    11:00 +19°C° 0 mm 2 mps 663 mmHg 29%
    12:00 +20°C° 0 mm 2 mps 663 mmHg 27%
    13:00 +20°C° 0 mm 2 mps 662 mmHg 25%
    14:00 +21°C° 0 mm 2 mps 662 mmHg 24%
    15:00 +19°C° 0 mm 2 mps 661 mmHg 27%
    16:00 +18°C° 0 mm 1 mps 660 mmHg 30%
    17:00 +15°C° 0 mm 1 mps 660 mmHg 34%
    18:00 +15°C° 0 mm 1 mps 660 mmHg 35%
    19:00 +14°C° 0 mm 1 mps 660 mmHg 36%
    20:00 +13°C° 0 mm 1 mps 660 mmHg 37%
    21:00 +13°C° 0 mm 1 mps 659 mmHg 37%
    22:00 +13°C° 0 mm 2 mps 659 mmHg 38%
    23:00 +13°C° 0 mm 2 mps 659 mmHg 38%

    28 October, Saturday

    Time Temperature Precipitation Wind Pressure Humidity
    00:00 +12°C° 0.2 mm 2 mps 658 mmHg 39%
    01:00 +12°C° 0.2 mm 2 mps 658 mmHg 40%
    02:00 +12°C° 0.2 mm 2 mps 658 mmHg 41%
    03:00 +12°C° 0.4 mm 2 mps 658 mmHg 44%
    04:00 +10°C° 0.4 mm 2 mps 658 mmHg 46%
    05:00 +10°C° 0.4 mm 2 mps 657 mmHg 49%
    06:00 +13°C° 0.3 mm 2 mps 658 mmHg 47%
    07:00 +14°C° 0.3 mm 2 mps 658 mmHg 45%
    08:00 +15°C° 0.3 mm 2 mps 659 mmHg 43%
    09:00 +17°C° 0.1 mm 2 mps 659 mmHg 41%
    10:00 +18°C° 0.1 mm 2 mps 659 mmHg 39%
    11:00 +19°C° 0.1 mm 2 mps 659 mmHg 37%
    12:00 +19°C° 0.2 mm 2 mps 659 mmHg 37%
    13:00 +19°C° 0.2 mm 2 mps 658 mmHg 36%
    14:00 +20°C° 0.2 mm 2 mps 658 mmHg 36%
    15:00 +18°C° 0.5 mm 2 mps 658 mmHg 42%
    16:00 +16°C° 0.5 mm 2 mps 658 mmHg 47%
    17:00 +15°C° 0.5 mm 1 mps 657 mmHg 53%
    18:00 +14°C° 0.3 mm 1 mps 658 mmHg 57%
    19:00 +13°C° 0.3 mm 1 mps 658 mmHg 61%
    20:00 +13°C° 0.3 mm 1 mps 658 mmHg 65%
    21:00 +12°C° 0.1 mm 1 mps 658 mmHg 67%
    22:00 +12°C° 0.1 mm 1 mps 658 mmHg 69%
    23:00 +12°C° 0.1 mm 1 mps 658 mmHg 71%
    Show more